User: anonymous   Login
Location: 相模原市立博物館
(35.5593°N, 139.3931°E)
Time: 13:59:42
(UTC+09:00)
Language:

STRAND 1 - Orbit

View from above orbital plane
View from above orbital plane
View from above satellite
View from above satellite

Ground track
Ground track

The orbit data is extracted from the following two-line orbital elements,

1 39090U 13009E   22027.54718646  .00000096  00000-0  48595-4 0  9998
2 39090  98.4108 229.2805 0008657 338.0664  22.0150 14.35234914467189
Epoch (UTC): 27 January 2022 13:07:56
Eccentricity: 0.0008657
inclination: 98.4108°
perigee height: 768 km
apogee height: 780 km
right ascension of ascending node: 229.2805°
argument of perigee: 338.0664°
revolutions per day: 14.35234914
mean anomaly at epoch: 22.0150°
orbit number at epoch: 46718

The dashed part of the orbit path shows where the satellite is in the earth's shadow,  

DLR